When you browse on this site, cookies collect data to enhance your experience and personalize the content and advertising you see.
Visit our Privacy Policy to learn more. By continuing to use the site, you agree to this use of cookies and data.
  • In Österreich
  • Länderverzeichnis
  • Für 7 Tage
  • Wassertemperatur
  • Satellitenkarten
  • Wetterkarte
  • News
  • Widgets
  • user-avatar
    Anmelden

    Stündliche Wetter Townsville

    Heute, 19 März, Dienstag

    Zeit Temperatur Niederschläge Wind Luftdruck Luftfeuchtigkeit
    00:00 +27°C° 0.4 mm 2 m/S 751 mmHg 85%
    01:00 +27°C° 0.4 mm 2 m/S 751 mmHg 86%
    02:00 +27°C° 0.5 mm 2 m/S 751 mmHg 87%
    03:00 +27°C° 0.5 mm 2 m/S 751 mmHg 87%
    04:00 +26°C° 0 mm 1 m/S 750 mmHg 89%
    05:00 +27°C° 0.4 mm 2 m/S 750 mmHg 88%
    06:00 +27°C° 0.4 mm 2 m/S 750 mmHg 87%
    07:00 +27°C° 0.4 mm 2 m/S 751 mmHg 87%
    08:00 +28°C° 0.8 mm 3 m/S 751 mmHg 81%
    09:00 +30°C° 0.8 mm 3 m/S 751 mmHg 75%
    10:00 +32°C° 0.8 mm 4 m/S 751 mmHg 69%
    11:00 +32°C° 1.1 mm 4 m/S 751 mmHg 67%
    12:00 +33°C° 1.1 mm 4 m/S 751 mmHg 65%
    13:00 +33°C° 1.1 mm 4 m/S 750 mmHg 63%
    14:00 +33°C° 0.5 mm 4 m/S 750 mmHg 64%
    15:00 +32°C° 0.5 mm 4 m/S 750 mmHg 65%
    16:00 +32°C° 0.5 mm 4 m/S 749 mmHg 65%
    17:00 +30°C° 0.6 mm 3 m/S 750 mmHg 70%
    18:00 +29°C° 0.6 mm 3 m/S 750 mmHg 74%
    19:00 +28°C° 0.6 mm 3 m/S 750 mmHg 78%
    20:00 +27°C° 0.4 mm 3 m/S 751 mmHg 79%
    21:00 +27°C° 0.4 mm 3 m/S 751 mmHg 80%
    22:00 +27°C° 0.4 mm 2 m/S 752 mmHg 82%
    23:00 +27°C° 0 mm 2 m/S 751 mmHg 82%

    Morgen, 20 März, Mittwoch

    Zeit Temperatur Niederschläge Wind Luftdruck Luftfeuchtigkeit
    00:00 +27°C° 0 mm 2 m/S 751 mmHg 82%
    01:00 +27°C° 0 mm 2 m/S 751 mmHg 82%
    02:00 +27°C° 0 mm 2 m/S 750 mmHg 83%
    03:00 +27°C° 0 mm 3 m/S 750 mmHg 83%
    04:00 +27°C° 0 mm 3 m/S 750 mmHg 83%
    05:00 +27°C° 0 mm 3 m/S 750 mmHg 83%
    06:00 +27°C° 0 mm 3 m/S 751 mmHg 83%
    07:00 +27°C° 0 mm 2 m/S 751 mmHg 83%
    08:00 +28°C° 0.2 mm 3 m/S 751 mmHg 78%
    09:00 +29°C° 0.2 mm 3 m/S 752 mmHg 73%
    10:00 +30°C° 0.2 mm 3 m/S 752 mmHg 68%
    11:00 +31°C° 0.1 mm 3 m/S 751 mmHg 65%
    12:00 +32°C° 0.1 mm 4 m/S 751 mmHg 63%
    13:00 +33°C° 0.1 mm 4 m/S 750 mmHg 60%
    14:00 +31°C° 0 mm 3 m/S 750 mmHg 60%
    15:00 +31°C° 0 mm 3 m/S 750 mmHg 61%
    16:00 +31°C° 0 mm 3 m/S 749 mmHg 61%
    17:00 +30°C° 0 mm 3 m/S 750 mmHg 65%
    18:00 +29°C° 0 mm 3 m/S 750 mmHg 69%
    19:00 +28°C° 0 mm 2 m/S 750 mmHg 73%
    20:00 +27°C° 0 mm 2 m/S 751 mmHg 74%
    21:00 +27°C° 0 mm 2 m/S 752 mmHg 75%
    22:00 +27°C° 0 mm 2 m/S 752 mmHg 75%
    23:00 +27°C° 0 mm 2 m/S 752 mmHg 76%

    übermorgen, 21 März, Donnerstag

    Zeit Temperatur Niederschläge Wind Luftdruck Luftfeuchtigkeit
    00:00 +27°C° 0 mm 2 m/S 751 mmHg 77%
    01:00 +27°C° 0 mm 2 m/S 751 mmHg 77%
    02:00 +27°C° 0 mm 2 m/S 751 mmHg 79%
    03:00 +26°C° 0 mm 2 m/S 750 mmHg 81%
    04:00 +26°C° 0 mm 2 m/S 750 mmHg 83%
    05:00 +26°C° 0 mm 2 m/S 750 mmHg 83%
    06:00 +26°C° 0 mm 2 m/S 750 mmHg 83%
    07:00 +27°C° 0 mm 3 m/S 751 mmHg 84%
    08:00 +28°C° 0 mm 3 m/S 751 mmHg 80%
    09:00 +29°C° 0 mm 4 m/S 751 mmHg 77%
    10:00 +30°C° 0 mm 4 m/S 752 mmHg 73%
    11:00 +30°C° 0.7 mm 4 m/S 751 mmHg 71%
    12:00 +30°C° 0.7 mm 4 m/S 751 mmHg 70%
    13:00 +32°C° 0.7 mm 4 m/S 751 mmHg 68%
    14:00 +30°C° 0.4 mm 4 m/S 750 mmHg 69%
    15:00 +30°C° 0.4 mm 4 m/S 750 mmHg 70%
    16:00 +30°C° 0.4 mm 4 m/S 749 mmHg 72%
    17:00 +29°C° 0.3 mm 4 m/S 750 mmHg 75%
    18:00 +28°C° 0.3 mm 4 m/S 750 mmHg 78%
    19:00 +27°C° 0.3 mm 4 m/S 751 mmHg 82%
    20:00 +27°C° 0 mm 4 m/S 751 mmHg 82%
    21:00 +27°C° 0 mm 4 m/S 751 mmHg 83%
    22:00 +27°C° 0 mm 5 m/S 752 mmHg 83%
    23:00 +27°C° 0.2 mm 4 m/S 751 mmHg 84%

    22 März, Freitag

    Zeit Temperatur Niederschläge Wind Luftdruck Luftfeuchtigkeit
    00:00 +27°C° 0.2 mm 4 m/S 751 mmHg 84%
    01:00 +27°C° 0.2 mm 4 m/S 751 mmHg 85%
    02:00 +27°C° 0.2 mm 4 m/S 750 mmHg 85%
    03:00 +27°C° 0.2 mm 4 m/S 750 mmHg 86%
    04:00 +27°C° 0.2 mm 4 m/S 750 mmHg 87%
    05:00 +27°C° 0.4 mm 4 m/S 750 mmHg 87%
    06:00 +27°C° 0.4 mm 4 m/S 750 mmHg 88%
    07:00 +27°C° 0.4 mm 4 m/S 751 mmHg 88%
    08:00 +27°C° 0.5 mm 4 m/S 751 mmHg 87%
    09:00 +27°C° 0.5 mm 4 m/S 751 mmHg 85%
    10:00 +28°C° 0.5 mm 4 m/S 752 mmHg 84%
    11:00 +28°C° 0.2 mm 4 m/S 751 mmHg 82%
    12:00 +29°C° 0.2 mm 4 m/S 751 mmHg 79%
    13:00 +29°C° 0.2 mm 5 m/S 750 mmHg 77%
    14:00 +29°C° 1.1 mm 4 m/S 750 mmHg 76%
    15:00 +29°C° 1.1 mm 4 m/S 749 mmHg 75%
    16:00 +29°C° 1.1 mm 4 m/S 749 mmHg 74%
    17:00 +29°C° 0.3 mm 4 m/S 749 mmHg 77%
    18:00 +28°C° 0.3 mm 4 m/S 750 mmHg 80%
    19:00 +27°C° 0.3 mm 4 m/S 750 mmHg 83%
    20:00 +27°C° 0.3 mm 4 m/S 751 mmHg 84%
    21:00 +27°C° 0.3 mm 5 m/S 751 mmHg 84%
    22:00 +27°C° 0.3 mm 5 m/S 752 mmHg 85%
    23:00 +27°C° 0.4 mm 4 m/S 751 mmHg 86%

    23 März, Samstag

    Zeit Temperatur Niederschläge Wind Luftdruck Luftfeuchtigkeit
    00:00 +27°C° 0.4 mm 4 m/S 751 mmHg 87%
    01:00 +27°C° 0.4 mm 4 m/S 751 mmHg 89%
    02:00 +26°C° 0.6 mm 4 m/S 750 mmHg 89%
    03:00 +26°C° 0.6 mm 4 m/S 750 mmHg 90%
    04:00 +26°C° 0.6 mm 3 m/S 750 mmHg 91%
    05:00 +26°C° 0.1 mm 3 m/S 751 mmHg 91%
    06:00 +27°C° 0.1 mm 3 m/S 751 mmHg 90%
    07:00 +27°C° 0.1 mm 3 m/S 751 mmHg 89%
    08:00 +28°C° 0.3 mm 4 m/S 752 mmHg 85%
    09:00 +29°C° 0.3 mm 4 m/S 752 mmHg 81%
    10:00 +30°C° 0.3 mm 4 m/S 752 mmHg 77%
    11:00 +30°C° 0.5 mm 4 m/S 752 mmHg 75%
    12:00 +32°C° 0.5 mm 4 m/S 751 mmHg 73%
    13:00 +32°C° 0.5 mm 4 m/S 751 mmHg 71%
    14:00 +32°C° 0.4 mm 4 m/S 751 mmHg 73%
    15:00 +30°C° 0.4 mm 4 m/S 751 mmHg 75%
    16:00 +30°C° 0.4 mm 4 m/S 750 mmHg 76%
    17:00 +29°C° 0.4 mm 4 m/S 751 mmHg 80%
    18:00 +28°C° 0.4 mm 4 m/S 751 mmHg 84%
    19:00 +27°C° 0.4 mm 3 m/S 752 mmHg 87%
    20:00 +27°C° 0.3 mm 3 m/S 752 mmHg 88%
    21:00 +27°C° 0.3 mm 4 m/S 753 mmHg 89%
    22:00 +27°C° 0.3 mm 4 m/S 753 mmHg 90%
    23:00 +27°C° 0.3 mm 3 m/S 753 mmHg 90%

    24 März, Sonntag

    Zeit Temperatur Niederschläge Wind Luftdruck Luftfeuchtigkeit
    00:00 +27°C° 0.3 mm 3 m/S 752 mmHg 90%
    01:00 +27°C° 0.3 mm 3 m/S 752 mmHg 91%
    02:00 +27°C° 0.7 mm 3 m/S 752 mmHg 91%
    03:00 +27°C° 0.7 mm 3 m/S 752 mmHg 91%
    04:00 +26°C° 0.7 mm 3 m/S 752 mmHg 91%
    05:00 +27°C° 0.1 mm 3 m/S 752 mmHg 91%
    06:00 +27°C° 0.1 mm 3 m/S 753 mmHg 90%
    07:00 +27°C° 0.1 mm 4 m/S 753 mmHg 90%
    08:00 +28°C° 0.1 mm 4 m/S 753 mmHg 84%
    09:00 +29°C° 0.1 mm 4 m/S 753 mmHg 79%
    10:00 +30°C° 0.1 mm 4 m/S 753 mmHg 73%
    11:00 +32°C° 0.2 mm 4 m/S 753 mmHg 71%
    12:00 +32°C° 0.2 mm 4 m/S 752 mmHg 69%
    13:00 +33°C° 0.2 mm 4 m/S 752 mmHg 67%
    14:00 +32°C° 0.1 mm 4 m/S 751 mmHg 70%
    15:00 +32°C° 0.1 mm 4 m/S 751 mmHg 72%
    16:00 +30°C° 0.1 mm 5 m/S 751 mmHg 75%
    17:00 +29°C° 0.1 mm 4 m/S 751 mmHg 79%
    18:00 +29°C° 0.1 mm 4 m/S 752 mmHg 83%
    19:00 +28°C° 0.1 mm 4 m/S 752 mmHg 87%
    20:00 +28°C° 0.2 mm 4 m/S 753 mmHg 88%
    21:00 +27°C° 0.2 mm 4 m/S 753 mmHg 89%
    22:00 +27°C° 0.2 mm 4 m/S 754 mmHg 91%
    23:00 +27°C° 0.2 mm 4 m/S 753 mmHg 91%
    Mehr zeigen